TimePDT,TemperatureF,Dew PointF,Humidity,Sea Level PressureIn,VisibilityMPH,Wind Direction,Wind SpeedMPH,Gust SpeedMPH,PrecipitationIn,Events,Conditions,WindDirDegrees,DateUTC
12:53 AM,57.9,53.1,84,29.94,10.0,Calm,Calm,-,N/A,,Overcast,0,2013-06-11 07:53:00
1:53 AM,57.0,53.1,87,29.93,10.0,Calm,Calm,-,N/A,,Overcast,0,2013-06-11 08:53:00
2:31 AM,55.4,53.6,94,29.94,10.0,Calm,Calm,-,N/A,,Scattered Clouds,0,2013-06-11 09:31:00
2:53 AM,54.0,52.0,93,29.92,10.0,West,3.5,-,N/A,,Clear,280,2013-06-11 09:53:00
3:29 AM,53.6,51.8,94,29.93,10.0,Calm,Calm,-,N/A,,Mostly Cloudy,0,2013-06-11 10:29:00
3:53 AM,54.0,52.0,93,29.91,10.0,Calm,Calm,-,N/A,,Scattered Clouds,0,2013-06-11 10:53:00
4:53 AM,52.0,51.1,97,29.92,7.0,Calm,Calm,-,N/A,,Scattered Clouds,0,2013-06-11 11:53:00
5:05 AM,51.8,51.8,100,29.95,8.0,Calm,Calm,-,N/A,,Mostly Cloudy,0,2013-06-11 12:05:00
5:53 AM,54.0,52.0,93,29.92,10.0,Calm,Calm,-,N/A,,Overcast,0,2013-06-11 12:53:00
6:53 AM,54.0,53.1,97,29.94,10.0,West,3.5,-,N/A,,Overcast,280,2013-06-11 13:53:00
7:53 AM,57.0,53.1,87,29.94,10.0,Calm,Calm,-,N/A,,Overcast,0,2013-06-11 14:53:00
8:53 AM,59.0,53.1,81,29.96,10.0,Calm,Calm,-,N/A,,Overcast,0,2013-06-11 15:53:00
9:53 AM,62.1,53.1,72,29.97,10.0,Calm,Calm,-,N/A,,Overcast,0,2013-06-11 16:53:00
10:53 AM,64.0,53.1,67,29.96,10.0,Calm,Calm,-,N/A,,Mostly Cloudy,0,2013-06-11 17:53:00
11:53 AM,69.1,54.0,58,29.96,10.0,Variable,3.5,-,N/A,,Partly Cloudy,0,2013-06-11 18:53:00
12:00 PM,69.8,53.6,56,29.97,10.0,Calm,Calm,-,N/A,,Partly Cloudy,0,2013-06-11 19:00:00
12:53 PM,72.0,55.0,55,29.94,10.0,Calm,Calm,-,N/A,,Scattered Clouds,0,2013-06-11 19:53:00
1:53 PM,75.0,55.0,50,29.92,10.0,SSE,5.8,-,N/A,,Scattered Clouds,160,2013-06-11 20:53:00
2:53 PM,75.9,55.9,50,29.91,10.0,SSW,5.8,-,N/A,,Scattered Clouds,200,2013-06-11 21:53:00
3:53 PM,80.1,55.9,43,29.89,10.0,South,6.9,-,N/A,,Scattered Clouds,190,2013-06-11 22:53:00
4:53 PM,79.0,55.9,45,29.87,10.0,SSW,8.1,-,N/A,,Scattered Clouds,210,2013-06-11 23:53:00
5:53 PM,78.1,54.0,43,29.86,10.0,SSW,8.1,-,N/A,,Scattered Clouds,200,2013-06-12 00:53:00
6:53 PM,78.1,54.0,43,29.85,10.0,SSE,10.4,-,N/A,,Clear,160,2013-06-12 01:53:00
7:53 PM,70.0,52.0,53,29.86,10.0,SSE,5.8,-,N/A,,Clear,160,2013-06-12 02:53:00
8:53 PM,64.9,50.0,58,29.86,9.0,Calm,Calm,-,N/A,,Clear,0,2013-06-12 03:53:00
9:53 PM,61.0,50.0,67,29.88,10.0,South,3.5,-,N/A,,Clear,170,2013-06-12 04:53:00
10:53 PM,57.0,48.9,74,29.88,9.0,South,4.6,-,N/A,,Clear,190,2013-06-12 05:53:00
11:53 PM,53.1,48.0,83,29.88,8.0,Calm,Calm,-,N/A,,Clear,0,2013-06-12 06:53:00